Terminal Aerodrome Forecast
Issued by NWS Albany, NY

Home | Current Version | Previous Version | Text Only | Print | Product List | Glossary On
Versions: 1 2 3 4 5 6 7 8 9 10 11 12 13 14 15 16 17 18 19 20 21 22 23 24 25 26 27 28 29 30 31 32 33 34 35 36 37 38 39 40 41 42 43 44 45 46 47 48 49 50
000
FTUS41 KALY 221122
TAFPOU
TAF
KPOU 221122Z 2212/2312 36005KT P6SM VCSH BKN120
     FM221400 02008KT P6SM BKN060 PROB30 2222/2304 4SM -SHRA BR
      OVC025
     FM230700 35004KT 6SM BR BKN120=

USA.gov is the U.S. government's official web portal to all federal, state and local government web resources and services.